NOAA 16 DEB

Satellite information

Favourite Embed

Satellite Type and Status

DEBRISIN ORBIT

Key statistics

Satellite NOAA 16 DEB at a glance.

Uptime

8995

Days in orbit

Revolutions

≈ 14.2

Per day

Orbit

SSO

Sun Synchronous Orbit

Inclination

98.6

Latest

Satellite identification and parameters

Extended collection of information and parameters for NOAA 16 DEB.

Object identification

Identified? True

Debris? True

Object name: NOAA 16 DEB

International designator: 2000-055AP

Object number (NORAD): 41080

Object ID (CCSDS): 41080

Country: UNITED STATES OF AMERICA (US)

Current information (Y/N): Y

RCS size: SMALL

Orbital parameters

Period: 101.262 minutes

Inclination: 98.5598 deg

SMA: 7196.567 km

Apoapsis: 822.381 km

Periapsis: 814.483 km

RAAN: 177.6368 deg

Eccentricy: 0.0005487

Argument of periapsis: 349.6035 deg

Mean anomaly: 10.5029 deg

Mean motion: 14.22049499 rev/day

Mean motion (dot): 0.00002187 rev/day2

B* drag term: 0.0010079 1/REarth

Two-line elements (TLE)

Creation date: May 8, 2025, 3:01 a.m.

Reference frame: TEME

Reference center: EARTH

Epoch: May 7, 2025, 3:52 p.m. UTC

TLE line 0: 0 NOAA 16 DEB

TLE line 1: 1 41080U 00055AP 25127.66111679 .00002187 00000-0 10079-2 0 9994

TLE line 2: 2 41080 98.5598 177.6368 0005487 349.6035 10.5029 14.22049499487225

Live tracking on map

Real-time ground track for satellite NOAA 16 DEB.

In-orbit conjunctions

A list of the most updated potential collisions computed for object NOAA 16 DEB.

Target Orbit TCA Probability of collision Miss distance Type
CZ-6A DEB LEO 2024-10-26 11:48:19 0.0001360088 122.0 (m) DEBRIS
METEOR 2-5 DEB LEO 2024-09-27 10:09:14 0.0004650608 102.0 (m) DEBRIS
NOAA 16 DEB SSO 2024-09-26 02:50:44 0.0004540544 726.0 (m) DEBRIS

Associated space launch

The NOAA K, L and M POES satellites begin the fifth generation of improved environmental monitoring in support of NOAA missions. The instrument payload has significant improvements and additions/deletions. The instrument changes have effected the spacecraft subsystems and data formats.

NOAA 16 DEB was lifted into orbit during the mission ‘Titan II SLV | NOAA 16’, on board a Titan II SLV space rocket.

The launch took place on Sept. 21, 2000, 10:22 a.m. from Space Launch Complex 4W.

For more information about the launch, click the button.

Launch to space Titan II SLV | NOAA 16
Titan II SLV | NOAA 16

Agency: N/A

Status: Launch Successful

Launch date: Sept. 21, 2000, 10:22 a.m. UTC

Rocket: Titan II SLV

Launch pad: Space Launch Complex 4W

Location: Vandenberg SFB, CA, USA

...

Latest news about this satellite

There are no fresh news available about this satellite. Check back as we update our databases every day.


Newsletter sign-up

Weekly statistics, charts and insights to help you stay on top of the space industry.